Location: Poprad
(49.0500°N, 20.3000°E)
Time: 18:48:57
(UTC+02:00)

RS-44 - Pass Details

Date: 20 April 2024
Orbit: 1174 x 1511 km, 82.5° (Epoch: 20 May)

Event Time Altitude Azimuth Distance (km) Brightness Sun altitude
Rises 04:55:18 0° 353° (N) 4,397 ? -7.2°
Reaches altitude 10° 05:00:24 10° 20° (NNE) 3,337 ? -6.4°
Maximum altitude 05:03:42 13° 46° (NE) 3,059 ? -5.9°
Drops below altitude 10° 05:06:56 10° 72° (ENE) 3,232 ? -5.4°
Sets 05:11:38 0° 99° (E) 4,132 ? -4.7°
